Regional Weather Roundup
Issued by NWS Sioux Falls, SD

Home | Current Version | Previous Version | Text Only | Print | Product List | Glossary On
Versions: 1 2 3 4 5 6 7 8 9 10 11 12 13 14 15 16 17 18 19 20 21 22 23 24 25 26 27 28 29 30 31 32 33 34 35 36 37 38 39 40 41 42 43 44 45 46 47 48 49 50
000
ASUS43 KFSD 201310
RWRFSD

WEATHER ROUNDUP FOR SE SOUTH DAKOTA/SW MINNESOTA/NW IOWA
NATIONAL WEATHER SERVICE SIOUX FALLS SD
700 AM CST MON FEB 20 2017

NOTE: "FAIR" INDICATES FEW OR NO CLOUDS BELOW 12,000 FEET WITH NO
SIGNIFICANT WEATHER AND OR OBSTRUCTIONS TO VISIBILITY.


SDZ038>040-050-052>070-201400-
SOUTHEAST SOUTH DAKOTA

CITY           SKY/WX    TMP DP  RH WIND       PRES   REMARKS
BROOKINGS      LGT RAIN  52  51  97 S14       29.68R FOG
CHAMBERLAIN    MOCLDY    54  51  89 S12       29.58F
HURON          CLOUDY    52  51  97 SE15G24   29.62R
MADISON        LGT RAIN  50  50 100 S9        29.69R
MITCHELL       CLOUDY    53  52  96 S14       29.65R FOG
SIOUX FALLS    LGT RAIN  54  54 100 S14       29.71R FOG
WINNER         FAIR      52  40  63 W13       29.62R
YANKTON        CLOUDY    54  50  87 SE10      29.66F
$$

MNZ071-072-080-081-089-090-097-098-201400-
SOUTHWEST MINNESOTA

CITY           SKY/WX    TMP DP  RH WIND       PRES   REMARKS
FAIRMONT       CLOUDY    51  47  86 S17       29.78F
JACKSON        CLOUDY    50  45  81 S14G23    29.75F
LUVERNE        LGT RAIN  52  50  93 S9        29.72S
MARSHALL       CLOUDY    56  53  90 SW24G31   29.66F
MONTEVIDEO     CLOUDY    52  48  87 S14       29.70F
PIPESTONE      LGT RAIN  54  48  82 S14       29.70S
REDWOOD FALLS  CLOUDY    49  45  86 SE14      29.72F
TRACY          CLOUDY    52  50  93 S14G22    29.70S
WINDOM         CLOUDY    52  46  82 S16       29.73F
WORTHINGTON    RAIN      52  51  97 S21       29.73F FOG
$$

IAZ001>003-012>014-020>022-031-032-NEZ013-014-SDZ071-201400-
NORTHWEST IOWA

CITY           SKY/WX    TMP DP  RH WIND       PRES   REMARKS
CHEROKEE       RAIN      51  51  99 SE6       29.75F
DENISON        CLOUDY    55  55 100 S10G20    29.74F
ESTHERVILLE    CLOUDY    48  46  93 S17       29.77F
LE MARS        CLOUDY    54  52  94 S6        29.73F FOG
SHELDON        RAIN      54  54 100 SE21      29.72F
SIOUX CITY     CLOUDY    56  54  93 SE12      29.72F
SPENCER        LGT RAIN  51  49  92 S16       29.76F
STORM LAKE     LGT RAIN  52  50  93 S9        29.77F
$$

ABBREVIATIONS USED IN REMARKS
   TC - TEMPERATURE IN CELSIUS
  WCI - WIND CHILL INDEX
   HX - HEAT INDEX
  VSB - VISIBILITY





USA.gov is the U.S. government's official web portal to all federal, state and local government web resources and services.